Regional Weather Roundup
Issued by NWS Mobile, AL

Home | Current Version | Previous Version | Text Only | Print | Product List | Glossary On
Versions: 1 2 3 4 5 6 7 8 9 10 11 12 13 14 15 16 17 18 19 20 21 22 23 24 25 26 27 28 29 30 31 32 33 34 35 36 37 38 39 40 41 42 43 44 45 46 47 48 49 50
956
ASUS44 KMOB 141712
RWRMOB
REGIONAL WEATHER ROUNDUP
NATIONAL WEATHER SERVICE MOBILE AL
1100 AM CST SUN FEB 14 2016

NOTE: "FAIR" INDICATES FEW OR NO CLOUDS BELOW 12,000 FEET WITH NO
      SIGNIFICANT WEATHER AND/OR OBSTRUCTIONS TO VISIBILITY.

  * THESE STATIONS ARE PART OF THE UNIVERSITY OF SOUTH ALABAMA
    MESONET AND ARE NOT UNDER NWS OR FAA QUALITY CONTROL.

ALZ061>064-141800-
COASTAL ALABAMA

CITY           SKY/WX    TMP DP  RH WIND       PRES   REMARKS
MOBILE REG APT MOSUNNY   57  40  52 SE17      30.26F
BROOKLEY FIELD SUNNY     56  39  53 SE9       30.28F
USA CAMPUS*    NOT AVBL
DOG RIVER*     NOT AVBL


CITY           SKY/WX    TMP DP  RH WIND       PRES   REMARKS
MOUNT VERNON*  NOT AVBL
SARALAND*      NOT AVBL
BAY MINETTE*   NOT AVBL
LOXLEY*        NOT AVBL
ROBERTSDALE*   NOT AVBL
FAIRHOPE*      NOT AVBL
ELBERTA*       NOT AVBL
FOLEY*         NOT AVBL
GRAND BAY*     NOT AVBL
DAUPHIN ISLND* NOT AVBL
BON SCOUR NWR* NOT AVBL
GULF SHORES    SUNNY     59  42  54 E20G31    30.27F

$$

ALZ051>060-141800-
INTERIOR SOUTHWEST AND SOUTH CENTRAL ALABAMA

CITY           SKY/WX    TMP DP  RH WIND       PRES   REMARKS
GREENVILLE     SUNNY     51  13  21 SE8       30.28F
EVERGREEN      LGT RAIN  52  17  25 SE12      30.29F
CASTLEBERRY*   NOT AVBL
ATMORE*        NOT AVBL
DIXIE*         NOT AVBL
ANDALUSIA/OPP  SUNNY     55  17  22 SE9       30.30
ANDALUSIA*     NOT AVBL
FLORALA APT    SUNNY     50  17  27 E8        30.31
FLORALA*       NOT AVBL

$$

FLZ001>006-141800-
WESTERN FLORIDA PANHANDLE

CITY           SKY/WX    TMP DP  RH WIND       PRES   REMARKS
PENSACOLA      SUNNY     54  33  45 SE14      30.29F
NAS PENSACOLA  SUNNY     57  39  51 SE15G24   30.28
MILTON         SUNNY     54  17  23 SE8       30.28F
WHTNG S FIELD  SUNNY     57  20  23 SE8       30.29F


CITY           SKY/WX    TMP DP  RH WIND       PRES   REMARKS
WALNUT HILL*   NOT AVBL
JAY*           NOT AVBL
DUKE FIELD     SUNNY     55  15  21 E9        30.28F
CRESTVIEW      SUNNY     55  17  22 VRB7      30.31F
VALPARAISO     MOSUNNY   53  19  25 SE12      30.29F
DESTIN         SUNNY     55  25  31 E9        30.30F

$$

MSZ076-079-141800-
INTERIOR SOUTHEAST MISSISSIPPI

CITY           SKY/WX    TMP DP  RH WIND       PRES   REMARKS
LEAKESVILLE*   NOT AVBL
AGRICOLA*      NOT AVBL

$$

MARINE OBSERVATIONS

STATION/POSITION TIME  TEMP    WIND        PRES    WAVE
                       AIR SEA DIR/SP/G            HT/PER
                 (UTC) (F)     (DEG/KT/KT) (MB)    (FT/S)
PASCAGOULA       1600   56      90/  8/ 11 1024.5R
PETIT BOIS ISLND 1600   60     120/ 15/ 19 1025.2R
GRAND BAY        1545   52     100/ 12     1026.0R
KATRINA CUT      1600   56     130/ 16       N/A
CEDAR POINT      1600   51      90/ 11     1024.4S
E DAUPHIN ISLAND 1700   57     120/ 19/ 22 1024.4F
MIDDLE BAY LIGHT 1600          100/ 13     1024.0F
USCG MOBILE BAY  1600   50 53  120/  7/  9 1026.1F
STATE DOCKS      1600   51 52              1025.4F
MEAHER PARK      1600   51     120/  8     1025.4F
WEEKS BAY        1545   55                   N/A
FORT MORGAN      1600   58     130/ 20/ 24 1024.3S
12 S ORANGE BCH  1650   58 64  110/ 17/ 23 1024.1F   4/ 5
PENSACOLA BAY    1600   56 51  150/  3/  7 1026.4R

$$

SELECTED LOCATIONS ACROSS THE REGION

CITY           SKY/WX    TMP DP  RH WIND       PRES   REMARKS
NEW ORLEANS    PTSUNNY   66  46  48 SE17G23   30.21F
GULFPORT       SUNNY     60  46  59 SE16      30.24F
PASCAGOULA AP  SUNNY     61  44  53 SE12      30.25F
PASCAGOULA*    NOT AVBL
HATTIESBURG    SUNNY     59  36  42 S12       30.24F
LAUREL         SUNNY     55  30  38 S10       30.24S
MERIDIAN       SUNNY     52  17  25 S12       30.23F
JACKSON        CLOUDY    49  24  37 S8        30.19F
MONTGOMERY     SUNNY     49  15  25 SE13      30.30F
TROY           SUNNY     51  15  23 E8        30.32F
KINSTON*       NOT AVBL
GENEVA*        NOT AVBL
ASHFORD*       NOT AVBL
DOTHAN         SUNNY     50  14  23 E9        30.34F
PANAMA CITY    SUNNY     55  18  23 E10       30.30F

$$





USA.gov is the U.S. government's official web portal to all federal, state and local government web resources and services.